sat.trackr.live / text

‹ back to catalog

STARLINK-31581

NORAD 59474 · 2024-068V

PAYLOAD ACTIVE UNKNOWN

§ Identity

Operator
Country
US
Launch date
2024-04-10
Launch site
AFETR
Launch vehicle
Mass (kg)
RCS (m²)

Purposes: comms

External: N2YO · Heavens-Above · Gunter

§ Orbital elements

Epoch: 2026-09-21T17:03:03.718080Z

Period
94.27 min
Inclination
43.0041°
Eccentricity
0.0000659
Mean motion
15.27580587 rev/d
Perigee alt
482.6 km
Apogee alt
483.5 km
Semi-major
6,861.2 km
B*
3.4116e-5
RAAN
0.3820°
Arg perigee
235.5160°
Mean anomaly
124.5630°
Rev number
13,858

§ Raw data

STARLINK-315811 59474U 24068V   26264.71045970  .00000677  00000+0  34116-4 0  99902 59474  43.0041   0.3820 0000659 235.5160 124.5630 15.27580587138582

JSON: /api/v1/satellites/59474 · /tle

For live sub-satellite position, see the globe view (requires WebGL).

§ Visibility from observer

Set your observer location to see the next 7 days of passes ≥ 10°. The values pass through the URL so the page stays shareable.

No JS? Fill the form by hand. The geolocation button needs JavaScript.